Wind_Speed
18 19 19 18 17 15 11 7 9 16 20 23 22 20 20 20 19 18 17 14 12 13 12 12 11 11 10 10 10 9 9 9 9 9 10 10 10 10 9 9 8 7 6 4 3 2 2 1 1
17 18 18 18 16 13 6 6 14 19 23 22 20 20 20 21 20 18 17 15 14 14 14 13 13 12 12 11 11 11 10 10 10 11 11 11 12 12 11 10 9 8 7 6 5 4 3 3 2
17 17 17 17 14 9 5 11 19 21 25 21 19 21 21 21 19 19 17 16 15 15 15 15 14 14 13 13 13 12 12 11 11 11 12 12 12 12 12 11 11 10 9 8 6 6 5 4 4
17 16 16 15 12 8 10 16 22 22 23 20 20 22 23 21 20 20 19 18 16 16 16 15 15 15 15 15 14 14 13 13 13 13 13 13 13 13 13 13 12 11 10 9 8 7 7 6 5
16 15 14 13 11 11 17 22 24 20 21 19 21 22 25 25 22 20 18 16 16 16 16 16 15 15 16 16 16 15 15 15 14 14 14 15 15 14 15 14 14 13 12 11 10 9 9 8 7
15 14 13 10 8 14 21 26 24 20 18 19 21 22 24 22 19 18 17 17 16 16 16 16 16 16 16 17 17 16 16 16 16 16 16 16 16 16 16 16 15 15 14 13 12 12 11 10 9
15 13 11 7 9 16 21 23 19 17 18 23 24 24 26 25 17 16 16 17 16 16 16 16 17 17 17 17 18 17 17 17 17 17 18 17 17 18 18 18 17 17 16 15 15 14 13 12 11
15 14 12 10 13 17 24 24 20 17 22 25 25 26 26 20 15 15 17 16 17 17 16 16 17 17 18 18 18 18 18 18 18 19 19 19 19 19 19 19 19 18 18 17 16 15 14 14 13
14 14 11 9 13 18 23 21 19 22 23 25 26 25 22 19 16 15 16 16 17 16 16 16 17 17 18 19 19 19 19 19 19 19 20 20 20 20 20 20 20 20 19 19 18 17 16 15 15
13 12 7 10 16 18 20 17 18 19 21 24 27 26 25 21 17 14 16 16 16 15 16 16 17 18 18 19 19 19 19 19 20 20 21 21 21 21 21 22 22 21 21 21 20 18 18 17 17
15 12 12 19 21 20 17 16 18 17 19 24 26 26 24 19 16 17 18 17 15 15 16 15 16 17 18 19 19 19 19 20 21 21 21 21 22 22 22 22 22 22 23 23 22 21 20 19 18
16 16 18 21 25 22 18 17 16 17 22 25 24 23 18 17 18 17 18 18 16 14 15 14 14 16 17 18 17 18 20 21 22 23 23 23 23 23 23 23 23 23 23 24 23 23 22 21 20
17 17 20 20 21 19 19 18 18 20 23 23 20 17 16 16 18 18 20 19 15 16 16 16 16 18 18 18 18 19 20 21 22 24 24 24 24 24 23 24 23 23 24 24 24 24 23 23 22
15 16 18 18 16 17 17 18 19 21 21 21 19 15 15 17 18 20 23 23 19 19 19 17 17 18 19 20 20 21 22 22 23 23 23 24 25 25 25 25 26 26 25 25 25 26 25 25 24
13 14 14 13 14 14 14 16 17 18 19 19 18 18 18 19 20 22 24 24 22 20 21 20 18 19 21 21 22 23 24 24 24 24 25 25 26 27 27 27 27 27 27 27 27 26 26 26 25
12 11 10 10 12 12 12 14 17 16 15 18 19 18 19 21 22 24 26 25 23 21 22 22 21 22 23 23 24 25 25 26 26 26 27 27 28 28 29 29 29 29 29 29 29 28 27 27 27
8 9 11 12 11 11 12 16 20 16 15 19 19 19 21 21 22 24 25 25 24 24 24 24 24 24 25 25 26 26 27 28 28 29 29 29 29 30 30 31 31 31 31 31 31 29 29 29 29
7 9 12 12 10 10 11 16 22 16 14 19 19 19 21 22 22 23 24 25 24 24 25 25 26 26 27 27 28 28 29 29 30 30 30 31 31 31 32 33 32 32 31 31 30 30 31 31 30
8 10 12 13 12 10 12 16 18 15 16 18 18 19 20 22 22 23 24 24 24 25 26 26 27 28 29 29 30 30 30 30 31 31 31 32 32 33 33 33 32 32 31 31 31 30 30 31 31
11 10 12 13 13 11 14 17 19 17 18 19 18 19 20 21 20 21 23 23 24 25 26 27 28 28 29 30 31 31 31 31 31 31 32 32 32 32 32 33 32 32 32 31 31 30 31 32 32
13 15 14 14 13 11 13 18 20 19 18 18 18 19 19 20 21 22 23 23 23 24 26 27 28 28 29 30 31 31 32 33 33 32 32 33 33 34 33 33 33 33 32 31 31 31 31 31 32
12 13 13 12 10 11 14 18 21 19 17 16 17 17 18 20 21 21 22 23 23 24 25 26 26 27 28 29 30 31 32 33 33 33 33 33 34 33 34 34 34 32 32 31 32 32 32 32 33
14 12 11 11 13 14 15 17 19 19 17 15 15 16 17 19 20 20 21 22 23 24 24 24 25 25 26 28 29 29 30 31 32 31 32 32 32 33 34 34 34 34 32 32 32 32 32 33 33
11 9 9 12 15 17 16 16 21 20 16 15 14 15 17 18 19 19 20 22 23 23 24 23 24 25 26 27 27 28 29 30 30 30 31 32 32 33 34 34 34 33 33 33 33 33 33 33 32
10 9 10 12 14 16 15 17 21 18 16 18 16 17 17 18 19 20 20 21 21 22 22 22 23 24 24 26 26 26 27 27 28 28 29 30 31 32 32 32 32 32 32 33 33 33 33 33 33
10 10 11 13 12 12 13 15 16 15 16 17 17 18 18 18 19 20 20 20 20 21 21 21 21 22 23 24 25 26 26 26 26 27 27 28 28 29 30 30 30 31 31 31 32 33 33 33 33
9 10 12 12 11 12 12 13 16 16 15 17 18 18 18 19 19 19 20 21 21 21 22 21 22 22 22 22 22 22 23 24 25 25 25 25 26 26 26 27 28 29 29 29 29 30 30 31 32
10 11 10 11 11 12 11 13 17 15 15 15 16 18 18 19 20 20 20 21 22 22 21 21 22 21 21 21 21 21 22 22 22 23 24 25 25 26 26 26 26 26 27 27 27 28 29 29 30
12 12 12 12 12 13 15 19 18 16 16 16 18 18 20 20 21 21 22 22 23 22 22 22 22 21 21 21 21 22 22 22 22 23 23 23 24 23 23 24 24 25 25 25 26 27 28 29 29
14 14 14 15 15 16 17 21 22 21 18 16 18 20 22 22 23 23 24 24 24 23 23 22 22 22 22 22 22 23 23 23 23 23 23 23 23 22 22 23 23 24 24 24 25 26 26 26 27
Wind_Direction
261 258 255 254 253 252 250 227 212 230 233 233 229 229 229 232 235 235 238 235 233 235 233 234 231 227 222 218 215 216 220 225 227 228 231 231 232 232 232 232 237 241 243 242 241 237 226 230 233
261 257 252 251 249 247 262 240 227 233 239 241 234 232 235 237 234 234 234 239 238 238 238 236 236 232 228 225 223 222 224 228 231 234 236 237 238 238 239 241 244 245 247 247 248 247 243 245 249
260 256 251 247 242 231 229 234 229 233 245 247 239 234 236 237 237 236 240 240 241 241 241 239 237 236 234 232 231 229 229 232 234 237 240 243 244 245 245 246 247 249 252 252 251 251 249 251 255
258 253 249 245 231 207 214 223 225 234 249 247 240 239 240 238 239 239 238 240 241 243 242 240 238 238 238 238 238 236 236 238 240 242 245 249 251 250 251 251 252 252 255 256 254 252 252 253 258
253 248 244 237 224 215 224 229 233 237 249 247 241 242 243 239 235 234 237 240 241 244 244 242 241 242 241 241 241 241 240 242 245 248 251 253 255 256 257 255 255 255 257 258 257 256 257 255 257
246 241 234 227 230 229 230 237 241 242 246 246 241 241 239 233 225 226 233 238 241 244 243 242 244 244 243 242 243 244 244 246 250 253 255 257 258 261 261 259 257 257 258 260 259 259 260 260 260
240 230 218 207 233 242 240 242 240 237 234 239 241 240 241 234 221 229 235 241 245 245 245 245 245 245 245 244 244 245 246 248 252 256 257 258 260 263 264 263 261 261 261 262 263 262 263 263 262
235 226 207 203 224 239 247 247 239 225 228 236 242 240 239 232 232 237 241 245 246 244 244 246 248 248 247 246 247 246 248 250 253 256 257 259 262 264 265 266 264 264 264 263 264 264 265 264 263
228 220 206 206 225 236 248 249 239 231 229 234 241 242 238 239 244 239 239 247 244 245 248 245 245 245 246 248 248 249 250 252 253 256 258 260 263 264 265 266 265 265 265 263 264 264 264 264 262
213 197 191 210 219 231 244 243 236 235 234 238 241 242 246 243 243 242 237 242 248 252 254 250 249 248 247 249 250 251 252 254 255 256 259 261 262 264 266 265 265 264 263 263 263 262 261 261 260
196 187 198 215 215 221 232 237 230 227 234 242 244 240 239 235 241 244 247 252 251 259 261 255 254 252 249 250 250 252 254 256 258 259 260 261 262 264 264 263 264 264 262 261 261 261 261 260 258
197 196 212 221 224 224 227 236 237 223 232 238 241 241 229 234 244 244 245 245 250 260 264 266 264 262 259 257 256 256 258 260 259 260 260 261 261 263 263 261 261 263 263 262 260 259 260 259 258
208 212 221 226 231 224 226 232 233 234 239 246 248 241 239 242 246 248 258 259 267 269 274 277 269 270 265 262 262 260 261 263 263 262 263 264 263 263 262 264 265 264 264 263 261 259 259 258 258
216 222 229 232 231 226 227 234 235 239 244 249 252 250 253 249 253 256 259 270 275 275 274 269 269 269 270 269 266 265 265 265 265 266 264 265 265 265 266 265 265 265 265 263 261 259 261 260 258
215 221 228 225 226 230 222 235 239 241 246 248 255 260 258 261 262 265 269 271 274 277 279 275 273 271 271 270 269 268 267 267 267 267 268 267 267 264 265 264 265 265 265 264 261 258 259 259 257
207 211 219 225 225 227 216 232 243 244 252 254 258 262 263 266 268 273 276 275 276 278 281 277 275 273 271 270 269 269 269 269 269 268 267 267 266 266 266 264 267 267 266 266 262 260 259 259 257
192 200 207 219 225 226 215 229 240 244 252 260 264 265 268 270 271 274 278 281 280 279 277 276 275 274 272 271 270 269 269 269 267 266 266 266 267 267 267 266 266 267 267 267 265 262 260 258 257
193 207 209 215 228 227 220 234 242 248 255 265 269 268 271 272 274 275 278 280 280 279 277 275 276 274 271 270 270 270 270 270 269 268 267 266 267 267 267 266 266 266 267 267 266 264 260 258 257
190 211 208 209 232 222 222 238 249 261 266 270 271 271 272 274 276 278 280 280 280 280 279 276 275 273 271 270 269 269 269 269 269 269 269 267 268 268 267 266 266 267 268 268 267 265 261 259 257
182 196 206 213 230 219 221 237 252 258 262 269 272 273 273 275 277 277 280 280 280 280 278 276 275 273 271 270 270 270 269 270 269 269 269 269 269 268 267 267 267 269 268 266 266 265 263 260 257
186 195 207 218 227 224 226 236 250 251 252 261 270 275 278 278 279 279 281 280 280 281 280 279 276 273 271 270 269 270 270 269 269 269 269 269 268 268 268 267 267 267 267 267 265 263 263 261 258
198 206 205 219 227 232 236 243 252 256 256 265 275 277 279 280 281 282 281 280 281 283 283 281 278 275 273 271 271 271 270 270 270 270 270 270 268 268 267 266 265 267 268 266 265 262 262 261 258
198 204 210 222 229 235 243 249 259 263 264 272 274 279 282 284 285 284 283 282 283 284 285 283 278 276 275 273 273 273 272 270 271 270 270 270 269 267 267 267 266 266 266 265 264 263 262 261 259
194 201 219 224 231 238 243 247 262 267 270 282 280 287 286 286 288 289 288 288 286 286 286 284 281 278 277 275 274 274 274 273 271 271 270 270 269 269 268 268 267 265 264 264 264 263 262 262 261
198 203 230 243 244 245 240 240 255 268 283 289 293 295 292 292 292 294 294 292 291 290 289 286 284 280 278 276 275 275 275 275 274 273 272 271 271 269 269 268 267 265 263 262 262 262 260 260 261
212 221 246 259 262 261 250 238 248 271 280 287 292 293 294 293 295 296 295 293 292 293 292 290 287 284 282 279 278 278 277 276 276 275 274 273 272 271 270 268 267 266 264 263 262 261 261 261 260
217 233 251 260 266 260 253 237 241 258 269 280 287 291 293 294 297 298 297 296 295 295 293 291 292 289 287 285 282 280 280 278 277 277 275 274 273 273 271 270 268 266 266 265 263 261 261 261 261
234 243 244 254 279 283 271 258 255 263 268 279 288 293 294 295 298 300 301 299 298 297 296 293 293 292 290 288 284 283 283 280 278 279 277 276 276 275 272 272 269 267 267 266 265 264 264 263 262
238 244 243 248 258 275 285 286 282 281 284 292 295 295 297 297 299 300 300 301 300 298 296 294 294 293 292 290 287 284 283 281 282 282 281 278 277 277 275 273 271 269 269 268 267 267 265 264 263
237 239 242 247 253 263 277 287 290 292 288 291 298 297 297 297 298 298 299 300 299 298 297 296 294 292 291 291 289 287 284 282 283 283 283 280 278 277 277 276 275 272 270 269 268 266 266 265 265
Height
5864 5865 5867 5869 5872 5874 5877 5879 5882 5883 5882 5881 5881 5881 5881 5882 5882 5885 5883 5881 5882 5883 5884 5885 5886 5887 5888 5889 5890 5890 5891 5892 5894 5895 5896 5896 5897 5898 5898 5898 5899 5899 5899 5899 5899 5899 5899 5898 5898
5861 5862 5864 5866 5869 5871 5875 5878 5881 5879 5877 5878 5879 5879 5879 5879 5879 5879 5879 5880 5882 5882 5883 5884 5885 5886 5887 5888 5889 5889 5890 5891 5892 5894 5895 5895 5896 5897 5897 5898 5898 5898 5898 5898 5898 5899 5898 5898 5898
5857 5858 5861 5863 5866 5869 5874 5877 5876 5874 5873 5876 5877 5877 5877 5876 5876 5876 5877 5879 5880 5881 5882 5882 5883 5884 5885 5886 5887 5888 5889 5890 5891 5892 5893 5894 5895 5896 5896 5897 5897 5897 5898 5898 5898 5898 5898 5898 5898
5853 5855 5858 5861 5864 5867 5871 5872 5869 5870 5871 5873 5874 5873 5874 5874 5873 5874 5875 5877 5878 5879 5880 5880 5881 5883 5884 5885 5886 5887 5888 5889 5890 5891 5892 5893 5893 5894 5895 5896 5896 5896 5896 5897 5897 5897 5897 5897 5897
5850 5852 5855 5858 5861 5865 5868 5867 5865 5868 5869 5869 5870 5870 5867 5869 5870 5870 5872 5874 5876 5877 5878 5878 5879 5881 5882 5883 5884 5885 5886 5887 5888 5889 5890 5891 5892 5892 5893 5894 5894 5895 5895 5896 5896 5896 5896 5896 5897
5847 5849 5852 5855 5859 5862 5863 5863 5862 5866 5867 5866 5866 5866 5862 5862 5863 5867 5869 5871 5873 5874 5875 5876 5877 5878 5879 5880 5882 5883 5884 5885 5886 5887 5888 5889 5890 5890 5891 5892 5892 5893 5893 5894 5895 5895 5895 5895 5895
5844 5846 5848 5853 5860 5860 5859 5858 5860 5863 5864 5862 5861 5861 5860 5859 5861 5864 5867 5869 5871 5871 5872 5873 5874 5875 5876 5877 5879 5880 5881 5882 5883 5884 5885 5886 5887 5888 5889 5890 5890 5891 5892 5892 5893 5893 5894 5894 5894
5840 5843 5845 5851 5857 5858 5854 5854 5856 5859 5859 5858 5856 5856 5855 5856 5858 5862 5865 5867 5867 5868 5869 5870 5871 5872 5873 5874 5875 5877 5878 5879 5881 5882 5883 5883 5884 5885 5886 5887 5888 5889 5889 5890 5890 5891 5891 5892 5892
5836 5841 5843 5850 5854 5853 5850 5850 5853 5853 5854 5853 5853 5852 5852 5854 5858 5860 5862 5862 5862 5863 5865 5866 5867 5868 5869 5870 5872 5873 5875 5876 5877 5878 5879 5880 5881 5882 5883 5884 5885 5886 5886 5887 5888 5888 5889 5889 5890
5834 5838 5843 5848 5850 5849 5847 5847 5849 5849 5849 5848 5848 5849 5850 5853 5856 5857 5858 5857 5857 5858 5861 5862 5864 5865 5866 5866 5868 5869 5871 5872 5873 5875 5876 5877 5878 5879 5880 5881 5881 5882 5883 5884 5884 5885 5886 5887 5887
5831 5835 5839 5841 5842 5843 5844 5843 5844 5845 5846 5843 5842 5844 5846 5849 5853 5854 5852 5852 5853 5854 5856 5857 5861 5861 5862 5862 5863 5866 5868 5868 5869 5871 5872 5873 5874 5875 5876 5877 5878 5879 5879 5880 5881 5882 5883 5883 5884
5828 5831 5833 5835 5837 5839 5841 5841 5842 5842 5842 5839 5837 5836 5837 5845 5848 5848 5848 5846 5847 5850 5850 5853 5856 5856 5857 5857 5859 5862 5864 5865 5866 5867 5868 5869 5870 5871 5872 5873 5874 5875 5875 5876 5878 5878 5879 5880 5881
5825 5828 5829 5831 5833 5835 5837 5838 5839 5838 5838 5835 5834 5833 5835 5842 5841 5843 5843 5838 5843 5846 5846 5850 5852 5853 5854 5854 5856 5857 5859 5860 5861 5862 5863 5865 5866 5866 5867 5868 5870 5870 5871 5872 5873 5875 5875 5876 5877
5823 5825 5827 5828 5830 5832 5834 5835 5836 5836 5836 5835 5834 5832 5835 5838 5839 5840 5840 5837 5838 5843 5843 5844 5846 5849 5850 5852 5853 5853 5855 5856 5857 5857 5857 5859 5861 5861 5862 5864 5865 5865 5866 5867 5868 5870 5871 5872 5872
5820 5823 5824 5826 5828 5829 5832 5833 5832 5832 5833 5833 5833 5834 5836 5836 5836 5835 5836 5835 5834 5837 5839 5841 5843 5845 5847 5848 5848 5849 5850 5851 5852 5853 5852 5854 5856 5857 5857 5858 5859 5860 5861 5862 5863 5864 5865 5867 5868
5818 5821 5824 5826 5827 5828 5831 5832 5830 5829 5829 5830 5830 5832 5833 5833 5833 5834 5834 5833 5832 5834 5836 5837 5839 5841 5842 5843 5844 5845 5845 5846 5847 5848 5849 5850 5850 5851 5852 5853 5853 5854 5855 5856 5857 5859 5860 5862 5863
5817 5820 5823 5825 5826 5828 5829 5829 5828 5827 5828 5829 5829 5830 5830 5831 5832 5832 5831 5830 5830 5831 5833 5834 5834 5836 5837 5837 5838 5839 5840 5841 5842 5842 5843 5844 5845 5845 5846 5847 5848 5848 5849 5850 5851 5853 5855 5856 5857
5818 5821 5823 5825 5825 5827 5828 5827 5825 5825 5825 5827 5827 5827 5827 5827 5828 5829 5828 5827 5827 5827 5828 5828 5829 5830 5831 5832 5833 5834 5834 5835 5836 5836 5837 5838 5838 5839 5840 5841 5841 5842 5843 5844 5845 5846 5847 5849 5850
5817 5820 5822 5824 5824 5826 5826 5825 5824 5824 5825 5825 5824 5824 5824 5824 5825 5825 5824 5824 5823 5823 5823 5823 5823 5824 5825 5826 5827 5827 5828 5829 5829 5830 5830 5831 5832 5832 5833 5834 5834 5835 5837 5837 5838 5839 5840 5842 5844
5817 5820 5821 5821 5823 5825 5825 5824 5823 5823 5824 5822 5822 5821 5821 5821 5821 5821 5820 5820 5820 5819 5819 5818 5818 5818 5818 5819 5820 5820 5821 5822 5822 5823 5823 5823 5825 5825 5826 5826 5827 5829 5830 5830 5830 5832 5834 5836 5837
5816 5818 5819 5820 5821 5822 5823 5823 5821 5821 5820 5819 5819 5818 5817 5817 5817 5817 5817 5816 5815 5814 5813 5813 5812 5812 5812 5813 5813 5814 5814 5814 5815 5815 5816 5817 5817 5818 5819 5820 5821 5822 5823 5824 5825 5826 5827 5829 5830
5814 5815 5817 5818 5819 5820 5821 5820 5817 5815 5815 5815 5815 5815 5814 5814 5813 5813 5812 5811 5810 5810 5808 5807 5806 5806 5806 5806 5807 5807 5807 5807 5808 5808 5809 5809 5810 5811 5811 5812 5813 5814 5816 5817 5818 5819 5820 5821 5823
5812 5814 5815 5817 5818 5819 5818 5816 5813 5812 5811 5811 5812 5812 5811 5811 5810 5809 5808 5807 5806 5805 5803 5802 5801 5801 5800 5800 5800 5800 5800 5800 5801 5801 5802 5802 5802 5803 5804 5805 5805 5806 5808 5809 5811 5812 5813 5814 5815
5810 5812 5814 5814 5815 5815 5814 5813 5810 5808 5807 5807 5808 5809 5808 5808 5807 5806 5804 5803 5802 5800 5799 5797 5796 5795 5795 5794 5794 5794 5794 5793 5793 5794 5794 5795 5795 5795 5796 5797 5798 5799 5801 5802 5803 5804 5805 5807 5808
5809 5811 5812 5811 5810 5810 5810 5809 5807 5806 5806 5805 5805 5805 5804 5805 5804 5802 5800 5799 5797 5795 5794 5792 5791 5790 5789 5788 5788 5788 5787 5787 5787 5787 5787 5787 5788 5788 5788 5789 5790 5791 5793 5794 5795 5796 5798 5799 5801
5808 5809 5809 5808 5807 5805 5805 5805 5802 5803 5804 5803 5803 5803 5802 5801 5800 5798 5796 5794 5793 5791 5789 5788 5786 5785 5784 5783 5782 5782 5781 5781 5781 5781 5781 5781 5781 5781 5781 5782 5783 5784 5785 5786 5787 5789 5790 5792 5793
5806 5807 5807 5806 5805 5804 5802 5801 5799 5798 5800 5801 5800 5800 5799 5798 5796 5794 5792 5790 5789 5787 5785 5783 5782 5780 5779 5778 5777 5776 5776 5775 5775 5774 5774 5774 5774 5774 5775 5775 5776 5777 5778 5779 5780 5781 5783 5784 5785
5804 5804 5805 5804 5803 5801 5800 5798 5796 5795 5795 5797 5797 5797 5796 5794 5793 5791 5788 5786 5784 5782 5780 5778 5777 5775 5774 5773 5772 5771 5770 5770 5769 5769 5768 5768 5768 5768 5768 5769 5769 5770 5771 5772 5773 5774 5775 5776 5778
5803 5803 5802 5803 5802 5801 5799 5797 5792 5792 5792 5793 5793 5792 5791 5790 5788 5786 5784 5782 5779 5777 5775 5774 5772 5770 5769 5768 5767 5766 5765 5764 5764 5763 5763 5762 5762 5762 5762 5762 5762 5763 5764 5765 5766 5767 5768 5769 5771
5799 5800 5800 5801 5800 5799 5797 5797 5792 5790 5789 5788 5788 5788 5786 5785 5783 5782 5779 5777 5775 5772 5770 5768 5767 5765 5764 5762 5761 5760 5759 5759 5758 5758 5757 5756 5756 5756 5756 5756 5756 5757 5758 5758 5759 5760 5761 5762 5763